Manitowoc, WI

3:48 AM CDT on October 22, 2019 (GMT -0500)
Manitowoc County

Weather History for KMTW - September, 2019

Change the Weather History Date:

Saturday, September 21, 2019

  Actual Average Record
Temperature  
Mean Temperature 70 °F -  
Max Temperature 75 °F 66 °F 87 °F (2005)
Min Temperature 64 °F 49 °F 37 °F (1999)
Cooling Degree Days 4    
Growing Degree Days 20 (Base 50)    
Moisture  
Dew Point 66 °F    
Average Humidity 96    
Maximum Humidity 100    
Minimum Humidity 79    
Precipitation  
Precipitation 0.00 in - - ()
Sea Level Pressure  
Sea Level Pressure 30.02 in    
Wind  
Wind Speed 6 mph (SSE)    
Max Wind Speed 14 mph    
Max Gust Speed -    
Visibility 4 miles    
Events Fog , Rain    
Averages and records for this station are not official NWS values.
T = Trace of Precipitation, MM = Missing Value Source: NWS Daily Summary

Daily Weather History Graph

Daily Weather History Graph

Search for Another Location

Airport or City:

Astronomy

Sep. 21, 2019 Rise Set
Actual Time 6:36 AM CDT 6:50 PM CDT
Civil Twilight 6:07 AM CDT 7:19 PM CDT
Nautical Twilight 5:33 AM CDT 7:53 PM CDT
Astronomical Twilight 4:58 AM CDT 8:27 PM CDT
Moon 11:13 PM CDT (9/21) 1:56 PM CDT (9/21)
Length of Visible Light 13h 11m
Length of Day
12h 13m
Waning Gibbous, 54% of the Moon is Illuminated
Sep 21
Waning Gibbous
Sep 21
Last Quarter
Sep 28
New
Oct 5
First Quarter
Oct 13
Full

Hourly Weather History & Observations

Time (CDT) Temp. Dew Point Humidity Pressure Visibility Wind Dir Wind Speed Gust Speed Precip Events Conditions
12:23 AM 64.4 °F 64.4 °F 100% 30.10 in 0.5 mi ESE 3.5 mph - N/A Fog Fog
12:56 AM 64.9 °F 64.9 °F 100% 30.08 in 0.5 mi SE 3.5 mph - N/A Fog Fog
1:09 AM 64.4 °F 64.4 °F 100% 30.09 in 0.2 mi SE 3.5 mph - N/A Fog Fog
1:56 AM 66.0 °F 66.0 °F 100% 30.08 in 0.2 mi SSE 5.8 mph - N/A Fog Fog
2:56 AM 66.0 °F 66.0 °F 100% 30.08 in 0.2 mi SSE 4.6 mph - N/A Fog Fog
3:04 AM 64.4 °F 64.4 °F 100% 30.08 in 0.5 mi SSE 4.6 mph - N/A Fog Fog
3:56 AM 64.9 °F 64.9 °F 100% 30.07 in 1.5 mi SE 4.6 mph - N/A   Overcast
4:05 AM 64.4 °F 64.4 °F 100% 30.07 in 2.0 mi SSE 5.8 mph - N/A   Overcast
4:23 AM 64.4 °F 64.4 °F 100% 30.07 in 1.0 mi SSE 4.6 mph - N/A   Mostly Cloudy
4:34 AM 66.2 °F 66.2 °F 100% 30.07 in 0.5 mi South 4.6 mph - N/A Fog Fog
4:45 AM 66.2 °F 66.2 °F 100% 30.07 in 0.2 mi South 4.6 mph - N/A Fog Fog
4:56 AM 66.0 °F 66.0 °F 100% 30.07 in 0.2 mi SSE 6.9 mph - N/A Fog Fog
5:03 AM 66.2 °F 66.2 °F 100% 30.07 in 0.5 mi SSE 6.9 mph - N/A Fog Fog
5:10 AM 66.2 °F 66.2 °F 100% 30.07 in 0.2 mi SE 4.6 mph - N/A Fog Fog
5:26 AM 66.2 °F 66.2 °F 100% 30.06 in 0.8 mi SSE 4.6 mph - N/A   Overcast
5:30 AM 66.2 °F 66.2 °F 100% 30.06 in 1.2 mi SSE 5.8 mph - N/A   Overcast
5:52 AM 66.2 °F 64.4 °F 94% 30.06 in 1.0 mi SSE 4.6 mph - N/A   Overcast
5:56 AM 66.0 °F 64.9 °F 96% 30.06 in 1.0 mi South 4.6 mph - N/A   Overcast
6:04 AM 64.4 °F 64.4 °F 100% 30.06 in 1.2 mi SSE 4.6 mph - N/A   Overcast
6:32 AM 66.2 °F 66.2 °F 100% 30.05 in 0.8 mi SSE 6.9 mph - N/A   Overcast
6:56 AM 66.0 °F 64.9 °F 96% 30.04 in 1.0 mi SE 5.8 mph - N/A   Overcast
7:13 AM 64.4 °F 64.4 °F 100% 30.04 in 0.8 mi SE 5.8 mph - N/A   Overcast
7:22 AM 64.4 °F 64.4 °F 100% 30.04 in 0.5 mi SE 4.6 mph - N/A Fog Fog
7:30 AM 66.2 °F 64.4 °F 94% 30.04 in 0.2 mi SSE 5.8 mph - N/A Fog Fog
7:45 AM 66.2 °F 66.2 °F 100% 30.04 in 0.5 mi SSE 10.4 mph - N/A Fog Fog
7:56 AM 66.0 °F 66.0 °F 100% 30.04 in 0.2 mi SSE 8.1 mph - N/A Fog Fog
8:10 AM 66.2 °F 66.2 °F 100% 30.04 in 0.8 mi South 8.1 mph - N/A   Overcast
8:19 AM 66.2 °F 66.2 °F 100% 30.04 in 1.0 mi South 8.1 mph - N/A   Overcast
8:31 AM 66.2 °F 66.2 °F 100% 30.03 in 2.0 mi South 8.1 mph - N/A   Overcast
8:44 AM 66.2 °F 66.2 °F 100% 30.03 in 4.0 mi South 9.2 mph - N/A   Overcast
8:56 AM 66.9 °F 66.9 °F 100% 30.01 in 4.0 mi SSE 8.1 mph - N/A   Mostly Cloudy
9:18 AM 68.0 °F 66.2 °F 94% 30.01 in 6.0 mi South 9.2 mph - N/A   Scattered Clouds
9:56 AM 71.1 °F 66.9 °F 87% 30.01 in 7.0 mi South 10.4 mph - N/A   Partly Cloudy
10:56 AM 75.0 °F 68.0 °F 79% 30.00 in 10.0 mi SSE 9.2 mph - N/A   Clear
11:56 AM 71.1 °F 66.9 °F 87% 29.99 in 10.0 mi South 10.4 mph - N/A   Clear
12:13 PM 73.4 °F 68.0 °F 83% 29.98 in 10.0 mi South 8.1 mph - N/A   Mostly Cloudy
12:56 PM 71.1 °F 66.0 °F 84% 29.98 in 10.0 mi South 13.8 mph - N/A   Mostly Cloudy
1:56 PM 69.1 °F 66.0 °F 90% 29.96 in 10.0 mi SSE 12.7 mph - N/A   Overcast
2:56 PM 69.1 °F 66.0 °F 90% 29.94 in 10.0 mi SSE 10.4 mph - N/A   Overcast
4:56 PM 73.9 °F 69.1 °F 85% 29.94 in 10.0 mi South 9.2 mph - 0.00 in Rain Light Rain
5:56 PM 68.0 °F 66.0 °F 93% 29.93 in 10.0 mi SSE 8.1 mph - 0.00 in Rain Light Rain
6:56 PM 68.0 °F 66.0 °F 93% 29.93 in 10.0 mi South 11.5 mph - 0.00 in   Overcast
7:56 PM 66.9 °F 66.0 °F 97% 29.94 in 10.0 mi South 8.1 mph - N/A   Overcast
8:56 PM 66.9 °F 64.9 °F 93% 29.93 in 9.0 mi SSE 6.9 mph - N/A   Overcast
9:56 PM 68.0 °F 66.0 °F 93% 29.93 in 10.0 mi South 9.2 mph - N/A   Overcast
10:56 PM 68.0 °F 66.0 °F 93% 29.91 in 8.0 mi South 3.5 mph - N/A   Overcast
11:56 PM 66.9 °F 66.0 °F 97% 29.90 in 8.0 mi SSE 4.6 mph - N/A   Overcast